• In Hungary
  • List of Countries
  • For 7 days
  • Water Temperature
  • Satellite Maps
  • Weather Map
  • News
  • Weather Widgets
  • user-avatar
    Login

    Hourly Weather Bogorodskoe

    Today, 24 September, Monday

    Time Temperature Precipitation Wind Pressure Humidity
    00:00 +15°C° 0 mm 4 mps 750 mmHg 62%
    01:00 +15°C° 0 mm 4 mps 750 mmHg 58%
    02:00 +14°C° 0 mm 4 mps 750 mmHg 54%
    03:00 +14°C° 0 mm 4 mps 750 mmHg 50%
    04:00 +14°C° 0 mm 4 mps 749 mmHg 49%
    05:00 +13°C° 0 mm 4 mps 749 mmHg 48%
    06:00 +13°C° 0 mm 5 mps 749 mmHg 48%
    07:00 +15°C° 0 mm 5 mps 749 mmHg 47%
    08:00 +16°C° 0 mm 6 mps 749 mmHg 46%
    09:00 +18°C° 0 mm 7 mps 748 mmHg 45%
    10:00 +20°C° 0 mm 7 mps 748 mmHg 44%
    11:00 +20°C° 0 mm 7 mps 748 mmHg 43%
    12:00 +21°C° 0 mm 7 mps 748 mmHg 41%
    13:00 +21°C° 0 mm 7 mps 748 mmHg 46%
    14:00 +20°C° 0 mm 6 mps 749 mmHg 50%
    15:00 +20°C° 0 mm 6 mps 749 mmHg 54%
    16:00 +17°C° 0.1 mm 5 mps 749 mmHg 65%
    17:00 +17°C° 0.1 mm 3 mps 749 mmHg 75%
    18:00 +15°C° 0.1 mm 2 mps 749 mmHg 85%
    19:00 +14°C° 0 mm 2 mps 749 mmHg 87%
    20:00 +14°C° 0 mm 1 mps 749 mmHg 89%
    21:00 +13°C° 0 mm 1 mps 750 mmHg 91%
    22:00 +13°C° 0 mm 1 mps 750 mmHg 93%
    23:00 +12°C° 0 mm 2 mps 750 mmHg 94%

    Tomorrow, 25 September, Tuesday

    Time Temperature Precipitation Wind Pressure Humidity
    00:00 +10°C° 0 mm 2 mps 750 mmHg 95%
    01:00 +10°C° 0 mm 2 mps 750 mmHg 95%
    02:00 +10°C° 0 mm 1 mps 750 mmHg 95%
    03:00 +10°C° 0 mm 1 mps 750 mmHg 94%
    04:00 +9°C° 0 mm 2 mps 750 mmHg 94%
    05:00 +9°C° 0 mm 2 mps 750 mmHg 94%
    06:00 +8°C° 0 mm 2 mps 750 mmHg 94%
    07:00 +10°C° 0 mm 3 mps 750 mmHg 87%
    08:00 +12°C° 0 mm 3 mps 750 mmHg 80%
    09:00 +13°C° 0 mm 4 mps 750 mmHg 72%
    10:00 +15°C° 0 mm 5 mps 749 mmHg 66%
    11:00 +16°C° 0 mm 5 mps 749 mmHg 60%
    12:00 +17°C° 0 mm 6 mps 749 mmHg 55%
    13:00 +17°C° 0 mm 6 mps 748 mmHg 52%
    14:00 +18°C° 0 mm 7 mps 748 mmHg 49%
    15:00 +18°C° 0 mm 7 mps 748 mmHg 47%
    16:00 +17°C° 0 mm 6 mps 748 mmHg 48%
    17:00 +17°C° 0 mm 6 mps 747 mmHg 49%
    18:00 +16°C° 0 mm 5 mps 747 mmHg 50%
    19:00 +16°C° 0.1 mm 6 mps 747 mmHg 51%
    20:00 +16°C° 0.1 mm 6 mps 747 mmHg 53%
    21:00 +15°C° 0.1 mm 7 mps 747 mmHg 54%
    22:00 +15°C° 0.1 mm 6 mps 747 mmHg 56%
    23:00 +15°C° 0.1 mm 6 mps 747 mmHg 58%

    Day after tomorrow, 26 September, Wednesday

    Time Temperature Precipitation Wind Pressure Humidity
    00:00 +15°C° 0.1 mm 5 mps 748 mmHg 60%
    01:00 +14°C° 0.5 mm 4 mps 748 mmHg 67%
    02:00 +13°C° 0.5 mm 4 mps 748 mmHg 75%
    03:00 +12°C° 0.5 mm 3 mps 749 mmHg 83%
    04:00 +11°C° 0.2 mm 3 mps 749 mmHg 83%
    05:00 +11°C° 0.2 mm 3 mps 750 mmHg 83%
    06:00 +10°C° 0.2 mm 3 mps 750 mmHg 83%
    07:00 +11°C° 0 mm 4 mps 751 mmHg 79%
    08:00 +11°C° 0 mm 4 mps 751 mmHg 74%
    09:00 +10°C° 0 mm 5 mps 752 mmHg 70%
    10:00 +12°C° 0 mm 5 mps 752 mmHg 68%
    11:00 +12°C° 0 mm 5 mps 753 mmHg 66%
    12:00 +12°C° 0 mm 5 mps 753 mmHg 64%
    13:00 +12°C° 0 mm 5 mps 754 mmHg 63%
    14:00 +12°C° 0 mm 5 mps 754 mmHg 63%
    15:00 +12°C° 0 mm 5 mps 754 mmHg 62%
    16:00 +11°C° 0 mm 4 mps 755 mmHg 66%
    17:00 +10°C° 0 mm 3 mps 755 mmHg 69%
    18:00 +9°C° 0 mm 3 mps 755 mmHg 73%
    19:00 +9°C° 0 mm 2 mps 756 mmHg 76%
    20:00 +8°C° 0 mm 2 mps 756 mmHg 80%
    21:00 +8°C° 0 mm 2 mps 756 mmHg 83%
    22:00 +7°C° 0 mm 2 mps 756 mmHg 85%
    23:00 +7°C° 0 mm 2 mps 756 mmHg 88%

    27 September, Thursday

    Time Temperature Precipitation Wind Pressure Humidity
    00:00 +6°C° 0 mm 2 mps 756 mmHg 90%
    01:00 +6°C° 0 mm 2 mps 756 mmHg 90%
    02:00 +6°C° 0 mm 2 mps 756 mmHg 91%
    03:00 +6°C° 0 mm 2 mps 756 mmHg 92%
    04:00 +6°C° 0 mm 2 mps 756 mmHg 91%
    05:00 +6°C° 0 mm 2 mps 756 mmHg 90%
    06:00 +5°C° 0 mm 2 mps 756 mmHg 90%
    07:00 +7°C° 0 mm 3 mps 756 mmHg 82%
    08:00 +7°C° 0 mm 4 mps 756 mmHg 75%
    09:00 +8°C° 0 mm 5 mps 755 mmHg 68%
    10:00 +9°C° 0 mm 5 mps 755 mmHg 61%
    11:00 +10°C° 0 mm 5 mps 754 mmHg 54%
    12:00 +10°C° 0 mm 6 mps 754 mmHg 48%
    13:00 +10°C° 0 mm 6 mps 753 mmHg 47%
    14:00 +11°C° 0 mm 6 mps 753 mmHg 46%
    15:00 +11°C° 0 mm 6 mps 752 mmHg 45%
    16:00 +10°C° 0 mm 6 mps 752 mmHg 48%
    17:00 +9°C° 0 mm 5 mps 752 mmHg 50%
    18:00 +10°C° 0 mm 4 mps 752 mmHg 53%
    19:00 +8°C° 0.1 mm 4 mps 751 mmHg 55%
    20:00 +8°C° 0.1 mm 5 mps 751 mmHg 58%
    21:00 +7°C° 0.1 mm 5 mps 751 mmHg 61%
    22:00 +7°C° 0.1 mm 6 mps 751 mmHg 63%
    23:00 +7°C° 0.1 mm 6 mps 750 mmHg 65%

    28 September, Friday

    Time Temperature Precipitation Wind Pressure Humidity
    00:00 +5°C° 0.1 mm 6 mps 750 mmHg 67%
    01:00 +5°C° 0 mm 6 mps 750 mmHg 69%
    02:00 +5°C° 0 mm 6 mps 750 mmHg 71%
    03:00 +6°C° 0 mm 5 mps 750 mmHg 73%
    04:00 +6°C° 0 mm 5 mps 750 mmHg 77%
    05:00 +5°C° 0 mm 4 mps 750 mmHg 81%
    06:00 +4°C° 0 mm 4 mps 750 mmHg 85%
    07:00 +6°C° 0 mm 4 mps 751 mmHg 80%
    08:00 +7°C° 0 mm 5 mps 751 mmHg 74%
    09:00 +8°C° 0 mm 5 mps 751 mmHg 69%
    10:00 +10°C° 0 mm 6 mps 750 mmHg 65%
    11:00 +11°C° 0 mm 6 mps 750 mmHg 61%
    12:00 +12°C° 0 mm 7 mps 750 mmHg 57%
    13:00 +12°C° 0 mm 7 mps 749 mmHg 58%
    14:00 +13°C° 0 mm 8 mps 749 mmHg 59%
    15:00 +13°C° 0 mm 8 mps 748 mmHg 60%
    16:00 +13°C° 0 mm 8 mps 748 mmHg 61%
    17:00 +13°C° 0 mm 8 mps 747 mmHg 62%
    18:00 +13°C° 0 mm 8 mps 747 mmHg 63%
    19:00 +13°C° 0 mm 8 mps 747 mmHg 63%
    20:00 +13°C° 0 mm 9 mps 746 mmHg 64%
    21:00 +13°C° 0 mm 9 mps 746 mmHg 64%
    22:00 +13°C° 0.3 mm 9 mps 746 mmHg 68%
    23:00 +13°C° 0.3 mm 9 mps 747 mmHg 72%

    29 September, Saturday

    Time Temperature Precipitation Wind Pressure Humidity
    00:00 +13°C° 0.3 mm 9 mps 747 mmHg 76%
    01:00 +11°C° 0 mm 7 mps 748 mmHg 76%
    02:00 +8°C° 0 mm 5 mps 749 mmHg 77%
    03:00 +6°C° 0 mm 4 mps 750 mmHg 77%
    04:00 +7°C° 0 mm 3 mps 751 mmHg 80%
    05:00 +5°C° 0 mm 3 mps 751 mmHg 83%
    06:00 +5°C° 0 mm 2 mps 752 mmHg 85%
    07:00 +7°C° 0 mm 3 mps 753 mmHg 78%
    08:00 +8°C° 0 mm 3 mps 753 mmHg 70%
    09:00 +10°C° 0 mm 3 mps 754 mmHg 62%
    10:00 +11°C° 0 mm 3 mps 754 mmHg 58%
    11:00 +12°C° 0 mm 3 mps 754 mmHg 53%
    12:00 +13°C° 0 mm 3 mps 754 mmHg 48%
    13:00 +13°C° 0 mm 3 mps 754 mmHg 47%
    14:00 +14°C° 0 mm 3 mps 754 mmHg 46%
    15:00 +14°C° 0 mm 3 mps 754 mmHg 46%
    16:00 +13°C° 0 mm 2 mps 754 mmHg 51%
    17:00 +12°C° 0 mm 2 mps 755 mmHg 56%
    18:00 +11°C° 0 mm 1 mps 755 mmHg 61%
    19:00 +10°C° 0 mm 1 mps 755 mmHg 63%
    20:00 +10°C° 0 mm 1 mps 755 mmHg 65%
    21:00 +9°C° 0 mm 1 mps 755 mmHg 67%
    22:00 +9°C° 0 mm 1 mps 755 mmHg 67%
    23:00 +9°C° 0 mm 1 mps 756 mmHg 68%
    Show more

    3.3.7123123